Temp_Advection
nan nan nan nan nan nan nan nan nan nan nan nan nan nan nan nan nan nan nan nan nan nan nan nan nan nan nan nan nan nan nan nan nan nan nan nan nan nan nan nan nan nan nan
nan 0 -0 0 0 -0 -0 -0 -0 -0 0 0 0 0 0 -0 -0 0 -0 -0 -0 -0 0 -0 0 0 -0 0 -0 -0 0 0 -0 -0 -0 0 0 0 -0 0 0 -0 nan
nan -0 0 0 0 0 0 -0 -0 -0 -0 0 0 0 0 0 -0 0 0 0 -0 -0 -0 0 0 0 -0 -0 0 -0 -0 -0 -0 -0 -0 0 0 0 0 0 0 -0 nan
nan 0 0 -0 0 0 0 0 0 0 0 0 0 0 -0 0 0 0 0 0 0 0 -0 0 -0 -0 -0 0 0 -0 -0 -0 -0 0 -0 -0 -0 0 0 -0 -0 -0 nan
nan 0 -0 -0 0 0 0 0 0 0 0 0 0 -0 -0 0 0 0 -0 -0 0 0 -0 -0 -0 -0 -0 -0 0 0 -0 -0 -0 -0 -0 -0 0 0 -0 -0 -0 -0 nan
nan 0 -0 -0 0 0 0 0 0 0 0 0 0 0 0 0 0 0 0 -0 -0 -0 -0 -0 -0 -0 0 -0 -0 0 -0 -0 -0 -0 0 0 -0 0 -0 -0 -0 -0 nan
nan 0 -0 0 0 0 0 0 0 0 0 0 0 0 0 0 0 0 0 -0 -0 -0 -0 -0 -0 -0 -0 0 -0 -0 -0 -0 -0 -0 -0 0 0 -0 -0 -0 -0 -0 nan
nan 0 0 0 0 0 0 0 0 0 0 0 0 0 0 0 0 0 0 0 0 -0 -0 0 0 0 -0 0 0 0 -0 -0 -0 -0 -0 -0 -0 -0 -0 -0 -0 -0 nan
nan 0 0 0 0 0 0 0 0 0 -0 0 0 0 0 0 -0 0 0 0 -0 -0 -0 0 0 0 0 -0 0 0 0 0 -0 0 -0 -0 -0 0 -0 -0 -0 -0 nan
nan 0 0 0 0 0 -0 -0 0 -0 0 0 -0 0 0 0 0 0 0 -0 -0 -0 -0 0 0 0 0 0 0 0 0 0 -0 0 0 -0 -0 0 0 0 -0 -0 nan
nan -0 -0 0 0 -0 -0 -0 -0 0 0 0 0 0 0 0 0 0 0 0 0 -0 -0 0 0 0 0 0 0 0 0 0 0 0 -0 -0 -0 0 0 0 0 0 nan
nan -0 0 -0 -0 0 0 0 0 0 0 0 0 0 0 0 -0 0 0 -0 0 -0 -0 -0 0 0 0 0 0 0 0 0 -0 0 -0 -0 -0 0 0 0 0 0 nan
nan 0 0 0 -0 -0 0 0 0 0 0 0 0 0 -0 -0 0 0 -0 0 0 -0 -0 0 0 0 0 0 0 0 0 0 0 0 -0 -0 -0 -0 0 0 0 0 nan
nan -0 0 0 -0 -0 0 0 -0 -0 0 0 -0 -0 -0 0 0 0 0 0 0 0 0 0 0 0 1 0 0 -0 0 0 -0 -0 0 -0 -0 0 0 0 0 0 nan
nan -1 0 0 0 0 0 -0 -0 0 0 0 -0 -0 0 0 0 0 0 0 0 0 0 0 0 0 0 0 0 -0 0 -0 0 0 0 -0 -0 0 0 0 0 0 nan
nan -1 -1 0 0 1 0 -0 -0 0 0 -0 -0 -0 0 0 0 0 0 -0 -0 0 0 -0 -0 0 0 0 -0 -0 -0 0 -0 0 0 -0 -0 -0 0 0 0 0 nan
nan 0 -0 -1 0 1 1 0 -0 -0 0 0 0 0 0 0 0 0 0 -0 -0 0 0 -0 0 0 0 0 0 -0 -0 -0 -0 0 0 0 -0 -0 -0 0 0 0 nan
nan 0 0 -0 -1 -1 0 1 0 -0 0 0 0 0 0 0 0 0 0 0 0 0 0 0 0 -0 0 0 -0 -0 -0 0 0 -0 -0 0 0 0 -0 -0 0 0 nan
nan -0 0 -0 -0 -0 0 1 -0 0 0 0 0 0 0 0 0 0 0 0 0 0 0 -0 0 0 0 -0 0 0 -0 -1 0 1 0 0 0 -0 -0 -0 -0 0 nan
nan -0 0 0 0 0 0 0 0 -0 -0 0 0 0 0 0 0 -0 0 0 0 -0 0 0 0 0 0 0 0 -0 -0 0 0 -0 -0 -0 -0 1 -0 -0 0 -0 nan
nan -0 -0 0 0 0 0 0 -0 -0 -0 -0 0 -0 0 0 -0 0 -0 -0 0 0 0 -0 0 0 0 0 0 0 0 0 -0 -1 -1 -0 -1 0 1 0 0 -0 nan
nan 0 -0 -0 0 0 0 -0 0 0 -0 -0 0 0 1 -0 -0 -0 -1 0 0 0 -0 -0 0 0 0 0 0 0 0 -0 -1 -1 -0 -0 -0 1 1 0 -0 -0 nan
nan 0 -0 -0 0 -0 -0 0 0 0 -0 -0 0 0 -0 -1 0 0 -0 -0 -0 1 1 -0 -0 0 0 -0 0 0 0 -0 -1 0 0 0 -0 0 0 0 0 0 nan
nan -0 -0 0 -0 -0 0 0 0 0 -0 -0 -0 0 0 0 -1 -1 -0 -0 -0 1 1 0 1 0 0 0 -0 0 0 -0 -0 0 1 0 0 0 0 0 0 0 nan
nan -1 -0 -0 -1 0 1 0 -0 0 -0 -0 -0 0 0 -1 -1 -0 -0 -0 1 1 1 0 0 0 0 -0 0 1 0 0 1 1 -0 -0 -0 -1 -0 -0 0 0 nan
nan nan nan nan nan nan nan nan nan nan nan nan nan nan nan nan nan nan nan nan nan nan nan nan nan nan nan nan nan nan nan nan nan nan nan nan nan nan nan nan nan nan nan
Wind_Speed
2 5 9 13 16 14 13 10 9 8 7 6 4 3 1 2 3 3 5 8 12 9 7 9 9 9 8 8 10 11 11 11 10 11 10 12 12 13 11 12 6 10 10
2 6 11 13 15 15 12 10 9 8 7 5 4 3 1 1 2 2 4 7 12 12 9 9 5 5 6 6 7 8 9 10 10 10 10 9 9 9 8 6 8 9 9
2 8 11 12 13 14 13 11 9 8 7 5 4 4 2 1 0 2 3 7 11 11 9 7 5 3 5 6 6 8 9 10 12 13 13 6 6 6 4 4 6 8 9
2 9 11 13 12 13 13 11 10 8 7 6 6 5 5 3 2 2 5 8 9 6 8 7 7 6 8 8 9 8 9 10 13 15 7 7 3 4 4 5 6 7 8
5 8 14 13 14 13 13 12 11 10 9 7 6 6 5 4 4 5 7 8 5 4 5 6 7 10 9 9 8 8 9 9 10 9 6 5 1 3 4 5 6 7 8
2 7 13 14 15 14 13 12 12 11 10 9 7 6 4 5 5 6 7 10 8 2 1 5 9 9 8 8 6 6 7 7 7 3 1 8 4 3 4 4 5 7 7
3 7 10 13 15 14 13 13 12 11 10 9 8 7 5 6 7 10 8 10 7 4 3 7 9 7 7 6 5 4 4 5 7 1 3 3 1 2 3 5 6 7 7
8 7 10 11 16 15 13 13 13 13 11 10 9 8 8 7 8 10 11 11 6 6 5 8 8 7 6 6 5 4 4 4 6 1 2 2 0 1 2 4 5 6 6
7 10 11 7 14 15 14 14 14 14 14 13 12 10 10 10 9 10 12 14 8 7 7 9 9 8 6 6 5 4 4 4 6 4 2 3 2 1 1 2 4 5 5
4 9 12 13 10 11 15 17 16 15 14 13 13 12 12 12 11 11 11 14 10 8 9 11 11 9 8 6 6 5 4 4 3 4 2 7 5 4 2 2 3 4 4
5 8 12 14 15 14 13 14 18 17 16 16 15 15 15 14 12 14 13 16 14 10 10 12 13 12 9 8 7 7 5 2 3 4 4 8 6 6 5 4 4 4 4
9 10 10 12 17 17 15 14 15 16 18 18 17 16 17 12 13 13 15 17 15 13 11 14 14 13 12 9 9 9 8 3 6 6 7 10 7 7 7 6 5 5 6
19 17 14 14 14 20 20 15 15 17 16 14 15 14 13 13 17 19 20 18 19 17 16 16 17 16 15 11 9 8 6 8 8 8 9 12 10 8 8 8 6 6 6
25 24 21 18 17 17 21 19 13 18 18 15 16 16 17 16 17 21 21 19 19 19 17 15 16 16 14 13 12 10 10 9 8 9 9 14 12 11 9 9 9 9 9
25 28 28 24 22 18 18 17 17 18 19 17 16 15 19 18 19 18 19 21 20 19 18 16 14 14 14 15 16 14 13 12 11 11 11 15 14 13 12 11 10 10 10
19 24 27 30 27 23 21 20 18 20 18 19 20 17 19 21 24 22 19 20 22 22 18 17 15 16 17 17 17 17 14 13 13 13 14 13 16 15 15 13 12 11 11
20 19 20 27 31 28 24 22 21 21 19 20 21 22 20 19 21 22 23 21 21 21 19 20 21 18 16 16 16 17 17 15 15 14 14 14 14 18 16 17 15 13 13
26 24 23 21 26 31 29 25 22 24 22 21 21 20 19 19 20 21 20 18 17 20 22 20 19 21 24 21 22 22 22 21 17 15 15 14 16 15 17 18 18 17 17
25 24 25 25 25 29 32 29 28 29 27 21 20 21 23 20 19 18 19 19 22 20 19 22 23 21 20 26 27 22 22 26 26 23 20 18 17 20 21 21 21 19 20
24 25 25 24 23 24 25 27 27 29 31 28 22 21 23 26 20 22 20 19 19 20 25 22 22 25 25 22 22 24 30 25 23 24 24 21 21 20 22 21 24 23 22
22 25 26 25 24 23 25 26 24 32 32 32 31 23 22 23 27 24 20 20 20 24 25 24 25 26 28 27 23 23 23 22 21 28 25 25 23 22 24 23 24 24 24
22 22 24 25 24 23 26 26 26 24 32 33 33 34 30 27 27 30 28 26 24 25 24 26 27 28 30 31 31 27 16 25 31 32 28 25 26 21 20 23 22 23 25
21 21 20 21 22 22 23 24 24 23 22 27 31 29 32 32 32 32 31 30 30 27 25 27 29 29 31 31 34 29 12 16 19 22 24 22 24 18 21 24 21 24 22
21 22 21 20 20 23 24 26 25 25 25 29 28 27 27 26 28 28 30 29 30 30 28 30 31 32 31 35 37 37 37 22 15 13 19 18 16 17 14 11 16 18 19
21 23 21 21 24 24 25 26 26 26 27 24 25 22 22 28 29 27 27 28 30 29 31 30 30 30 33 30 36 31 35 37 26 17 12 16 14 20 20 23 25 30 30
22 17 19 18 20 19 24 24 26 25 25 27 26 24 23 25 25 25 25 27 27 26 28 28 27 29 28 30 28 33 33 32 33 30 24 28 28 29 31 35 34 32 34
Wind_Direction
37 222 183 177 174 177 183 185 179 180 179 180 179 173 100 15 34 59 108 123 115 102 109 111 114 118 113 109 114 117 110 122 115 104 101 100 103 102 97 91 74 43 44
272 237 187 185 179 181 188 188 182 180 183 193 193 201 180 343 15 84 121 139 139 132 131 135 149 164 150 136 122 126 116 115 117 99 91 102 103 93 93 80 25 36 44
156 210 197 183 184 185 187 195 196 193 198 201 212 199 216 255 250 115 127 135 155 158 148 167 173 189 174 165 138 126 122 113 105 89 85 84 89 87 69 39 35 40 42
161 207 185 185 188 188 192 199 204 206 213 216 215 227 229 216 217 153 145 134 127 147 174 184 188 162 137 141 135 132 130 122 113 89 80 50 47 71 53 49 42 38 40
145 207 193 209 195 195 197 200 209 213 219 224 227 240 224 209 205 179 156 143 142 119 178 185 193 135 133 135 135 133 136 130 115 81 99 117 81 70 62 48 45 37 33
184 202 207 218 209 202 207 206 214 219 222 229 234 245 244 210 203 182 176 172 188 189 192 189 151 143 139 137 139 144 145 145 105 93 93 104 190 71 61 48 36 31 40
191 190 232 224 211 212 214 214 215 223 226 225 230 239 224 223 219 203 197 191 197 214 221 178 160 156 159 154 146 150 159 157 111 136 103 95 80 69 52 36 30 34 39
173 185 216 226 212 214 216 221 223 223 226 232 232 236 237 234 233 212 211 205 218 229 220 190 172 167 163 167 170 166 167 165 83 128 137 198 214 42 42 30 27 30 32
207 184 185 232 225 220 223 225 228 229 227 232 238 240 240 237 237 231 225 212 227 239 224 201 191 187 186 183 184 178 177 178 132 231 147 312 275 292 359 13 16 20 22
241 222 203 193 219 234 233 230 230 231 235 237 241 243 243 242 237 237 219 210 227 241 229 211 205 204 204 206 204 204 194 186 124 238 191 240 265 281 295 319 343 358 5
274 244 227 225 213 208 219 246 237 232 232 233 235 238 237 236 241 235 222 222 224 232 227 221 216 215 218 222 224 221 215 183 244 250 235 267 268 277 283 295 310 323 328
271 260 241 237 230 224 211 222 244 233 237 238 239 239 239 230 226 239 231 226 225 232 228 225 225 222 225 233 246 238 233 199 243 247 253 270 270 274 277 282 291 304 310
263 264 257 245 241 232 225 218 222 229 227 225 229 222 227 221 229 230 230 226 223 229 230 226 227 229 229 210 229 261 250 239 242 257 256 272 273 273 276 279 282 286 297
262 256 256 254 248 243 236 233 231 241 236 226 224 217 222 219 223 231 229 227 221 231 225 233 227 232 227 224 226 234 238 249 249 253 261 278 273 271 274 276 271 273 283
267 259 252 252 248 243 243 230 232 233 231 226 220 218 219 222 226 230 233 226 223 214 218 216 215 222 224 227 231 229 235 243 252 255 259 273 275 270 270 271 277 278 279
271 264 256 249 247 245 238 235 231 231 230 230 233 215 227 223 219 225 224 230 225 219 227 223 220 217 223 232 235 233 239 242 246 247 253 263 279 272 267 267 274 264 272
271 266 262 251 243 242 241 238 231 228 230 236 228 227 223 225 229 224 225 229 230 226 223 236 234 225 229 234 239 237 236 244 246 251 258 263 266 279 269 262 266 262 262
270 260 257 254 249 243 239 238 235 229 229 228 233 224 227 222 223 226 224 228 234 233 230 228 234 233 231 235 234 238 243 244 244 247 247 256 265 266 272 264 265 266 267
266 257 254 254 251 248 241 239 242 231 223 227 226 223 221 214 222 218 221 222 220 226 234 234 237 237 239 241 248 255 246 251 254 252 251 251 255 261 263 268 271 267 269
265 254 249 250 248 244 238 237 240 233 224 215 221 224 223 220 215 222 224 236 235 235 240 239 237 241 243 245 245 244 248 248 247 247 254 256 264 270 273 273 265 271 269
268 253 247 246 245 239 231 228 231 236 232 224 217 218 224 225 228 228 237 245 238 245 240 247 250 247 246 249 243 242 241 244 244 252 255 263 264 271 270 273 267 273 277
269 258 251 245 241 236 228 228 227 245 234 232 229 229 223 225 231 237 244 250 248 250 252 246 249 253 250 252 249 252 240 255 262 256 262 260 265 269 258 260 263 270 272
271 257 249 246 238 235 229 228 230 229 231 232 228 233 237 236 237 238 245 251 256 258 255 255 254 252 254 254 245 236 239 241 254 250 245 241 238 250 252 260 268 274 279
282 262 248 240 240 241 236 225 229 229 231 231 228 229 234 238 239 243 245 251 260 262 255 257 260 254 251 252 258 249 247 247 239 238 234 221 229 238 244 249 276 279 278
278 265 253 244 248 241 236 226 226 228 230 230 234 229 228 239 243 244 248 253 255 257 259 262 258 257 251 253 246 250 257 247 232 239 255 255 267 253 256 268 273 286 283
276 262 245 244 251 245 224 223 225 226 231 231 229 233 237 236 242 242 243 251 255 257 263 256 254 252 248 254 256 255 246 241 236 241 257 271 275 274 262 266 278 279 284
Height
1512 1510 1512 1514 1516 1518 1520 1522 1523 1525 1526 1527 1528 1529 1529 1529 1529 1529 1530 1530 1531 1532 1533 1535 1535 1536 1536 1536 1536 1536 1537 1537 1538 1539 1539 1539 1540 1540 1540 1539 1540 1539 1538
1512 1510 1512 1514 1516 1518 1520 1523 1524 1526 1527 1528 1529 1530 1530 1530 1531 1531 1531 1532 1533 1534 1535 1536 1537 1537 1537 1538 1538 1538 1539 1540 1540 1541 1542 1542 1542 1542 1542 1542 1541 1540 1540
1511 1511 1513 1515 1517 1519 1520 1522 1524 1526 1528 1529 1530 1531 1530 1531 1532 1533 1533 1534 1534 1536 1536 1537 1538 1538 1539 1539 1539 1540 1541 1542 1543 1544 1544 1545 1544 1544 1543 1543 1542 1542 1541
1512 1513 1515 1515 1518 1519 1521 1523 1525 1527 1528 1529 1530 1531 1531 1532 1532 1533 1534 1535 1536 1537 1538 1538 1539 1539 1539 1540 1541 1542 1542 1543 1545 1546 1548 1548 1546 1545 1544 1544 1544 1543 1542
1512 1514 1515 1516 1517 1519 1521 1524 1526 1527 1528 1529 1530 1531 1531 1532 1533 1534 1535 1536 1538 1538 1539 1539 1540 1540 1541 1542 1543 1544 1544 1545 1546 1548 1549 1549 1548 1546 1546 1545 1544 1544 1544
1514 1515 1515 1516 1517 1519 1521 1524 1526 1527 1528 1529 1530 1531 1532 1532 1534 1535 1536 1537 1539 1539 1540 1540 1541 1542 1542 1543 1544 1545 1546 1546 1547 1550 1549 1549 1547 1547 1547 1546 1546 1545 1544
1513 1514 1515 1516 1518 1520 1521 1523 1525 1527 1528 1529 1530 1531 1532 1533 1534 1535 1536 1538 1539 1540 1540 1541 1542 1543 1543 1544 1545 1546 1547 1548 1548 1550 1550 1550 1548 1548 1548 1548 1547 1546 1546
1511 1514 1515 1515 1516 1518 1521 1522 1524 1525 1527 1529 1530 1531 1532 1533 1534 1535 1536 1538 1539 1540 1541 1542 1542 1543 1544 1544 1545 1546 1547 1548 1549 1551 1550 1550 1548 1548 1548 1548 1548 1547 1546
1511 1512 1514 1516 1517 1518 1519 1521 1523 1525 1526 1527 1529 1530 1531 1532 1533 1534 1536 1537 1539 1539 1540 1542 1543 1544 1544 1545 1546 1546 1547 1548 1549 1551 1551 1550 1549 1548 1548 1548 1548 1548 1547
1511 1512 1513 1514 1517 1518 1518 1519 1521 1523 1525 1526 1527 1529 1530 1531 1532 1534 1535 1537 1538 1539 1540 1541 1542 1543 1544 1545 1545 1546 1547 1548 1549 1550 1551 1549 1549 1549 1548 1548 1548 1548 1548
1510 1510 1512 1513 1515 1515 1519 1519 1520 1521 1522 1523 1525 1526 1527 1528 1530 1532 1533 1534 1537 1538 1539 1540 1541 1542 1543 1544 1545 1546 1547 1548 1551 1551 1551 1549 1548 1548 1548 1548 1548 1548 1547
1510 1509 1509 1511 1512 1514 1515 1518 1518 1520 1521 1522 1522 1524 1525 1528 1531 1531 1532 1533 1535 1537 1537 1538 1540 1541 1542 1543 1544 1545 1546 1548 1550 1550 1550 1548 1548 1548 1547 1547 1547 1547 1547
1507 1508 1508 1508 1509 1510 1512 1514 1516 1517 1518 1520 1522 1522 1524 1527 1528 1529 1529 1530 1532 1534 1535 1536 1537 1538 1540 1542 1545 1544 1545 1547 1548 1549 1548 1547 1547 1547 1546 1546 1547 1546 1546
1502 1504 1506 1506 1507 1508 1509 1511 1513 1514 1515 1517 1518 1521 1523 1524 1526 1525 1526 1528 1529 1530 1533 1534 1535 1537 1538 1541 1542 1544 1545 1545 1546 1547 1547 1545 1545 1545 1545 1545 1545 1545 1545
1497 1499 1501 1502 1503 1504 1506 1509 1511 1512 1512 1514 1515 1517 1519 1521 1522 1523 1524 1525 1527 1529 1530 1532 1534 1536 1538 1539 1539 1539 1541 1543 1544 1544 1545 1543 1543 1543 1543 1543 1543 1543 1543
1494 1493 1495 1496 1499 1500 1501 1504 1508 1509 1509 1509 1510 1512 1515 1516 1518 1520 1522 1522 1523 1525 1527 1529 1532 1533 1535 1535 1535 1536 1537 1539 1540 1541 1541 1541 1540 1540 1540 1541 1541 1541 1541
1490 1490 1490 1490 1493 1494 1496 1499 1502 1505 1506 1506 1506 1508 1510 1512 1513 1516 1518 1519 1520 1522 1525 1525 1528 1530 1531 1531 1533 1533 1533 1535 1536 1537 1538 1538 1538 1537 1537 1538 1538 1538 1538
1485 1484 1485 1486 1486 1488 1490 1493 1495 1498 1502 1502 1502 1504 1506 1508 1510 1511 1513 1516 1518 1519 1520 1521 1523 1524 1526 1527 1527 1528 1529 1529 1532 1533 1533 1534 1535 1534 1533 1534 1534 1535 1535
1479 1479 1479 1480 1480 1482 1484 1486 1488 1490 1494 1498 1499 1499 1501 1504 1506 1508 1509 1511 1513 1516 1517 1517 1519 1521 1522 1522 1523 1524 1525 1525 1525 1526 1527 1528 1530 1531 1530 1531 1531 1531 1531
1473 1472 1473 1473 1474 1476 1478 1480 1481 1484 1486 1491 1494 1496 1496 1499 1501 1503 1505 1507 1509 1511 1512 1514 1515 1517 1518 1519 1518 1519 1519 1521 1520 1521 1523 1523 1522 1524 1525 1526 1527 1526 1527
1465 1465 1466 1467 1468 1469 1472 1474 1476 1476 1480 1483 1487 1491 1493 1494 1496 1498 1500 1502 1504 1505 1506 1509 1511 1512 1512 1515 1515 1515 1515 1516 1515 1514 1517 1518 1518 1518 1521 1521 1523 1522 1522
1460 1459 1459 1460 1462 1463 1465 1468 1471 1472 1474 1477 1481 1483 1486 1489 1490 1493 1495 1496 1498 1499 1500 1502 1505 1507 1508 1510 1510 1512 1508 1510 1508 1509 1512 1512 1512 1514 1516 1516 1516 1517 1517
1455 1453 1453 1454 1455 1457 1461 1464 1466 1468 1470 1472 1474 1477 1480 1483 1484 1486 1489 1491 1491 1493 1495 1497 1498 1500 1501 1503 1504 1505 1504 1503 1505 1505 1504 1506 1507 1507 1511 1511 1511 1512 1512
1450 1450 1447 1448 1451 1452 1454 1457 1460 1462 1464 1466 1469 1473 1475 1477 1478 1480 1483 1484 1486 1487 1488 1490 1491 1492 1495 1496 1497 1497 1499 1500 1500 1500 1500 1501 1500 1502 1504 1503 1506 1507 1506
1443 1443 1443 1443 1444 1446 1448 1452 1455 1457 1459 1462 1466 1468 1470 1470 1473 1475 1477 1479 1480 1480 1481 1483 1484 1485 1486 1488 1489 1489 1492 1494 1495 1496 1496 1497 1498 1499 1498 1498 1499 1500 1502
1435 1437 1438 1438 1438 1440 1442 1445 1448 1452 1455 1457 1460 1463 1465 1466 1468 1470 1472 1474 1475 1475 1475 1477 1478 1478 1479 1481 1483 1484 1484 1486 1488 1488 1490 1492 1493 1493 1492 1491 1493 1496 1496